Location: *
(42.1806°N, 44.1358°E)
Time: 14:23:02
(UTC+00:00)

Daily predictions for brighter satellites

Satellite Brightness Start Highest point End
(mag) Time Altitude Azimuth Time Altitude Azimuth Time Altitude Azimuth
STARLINK-1238 4.0 15:51:51 10° WSW 15:54:52 44° NNW 15:57:55 10° NE
STARLINK-1117 4.4 15:51:18 10° NW 15:55:07 38° NNE 15:58:55 10° E
Cosmos 1892 Rocket 3.7 15:51:03 10° N 15:55:28 54° E 15:59:51 10° SSE
STARLINK-1205 4.0 15:52:47 10° WSW 15:55:47 43° NNW 15:58:48 10° NE
STARLINK-1204 4.0 15:53:17 10° WSW 15:56:16 43° NNW 15:59:16 10° NE
Cosmos 1048 Rocket 4.3 15:51:54 10° SSW 15:57:01 73° WNW 16:02:13 10° NNE
STARLINK-1192 3.7 15:53:41 10° SW 15:57:46 84° NW 16:01:52 10° NE
Cosmos 1805 3.2 15:54:05 10° S 15:57:59 77° E 16:01:54 10° N
STARLINK-1078 4.3 15:55:48 10° NW 15:59:39 40° NNE 16:03:30 10° E
STARLINK-1118 2.1 15:57:42 10° WNW 15:59:53 70° SW 16:02:03 10° SE
Cosmos 494 Rocket 3.9 15:55:11 10° S 16:00:17 71° ESE 16:05:27 10° NNE
Meteor 1-24 Rocket 3.8 15:55:33 10° N 16:00:58 53° ENE 16:06:11 10° SSE
STARLINK-1244 3.7 15:58:36 10° WSW 16:02:40 78° NW 16:06:46 10° NE
STARLINK-1108 4.2 16:00:32 10° NW 16:04:25 43° NNE 16:08:10 11° ESE
CZ-2C R/B 3.5 16:00:50 10° SE 16:05:27 37° ENE 16:09:55 10° N
Okean 1-7 Rocket 3.6 16:02:35 10° N 16:06:58 61° E 16:11:17 10° SSE
STARLINK-1138 3.8 16:03:17 10° WSW 16:07:21 72° NW 16:11:27 10° NE
STARLINK-1071 4.1 16:05:10 10° NW 16:09:05 46° NNE 16:12:37 12° ESE
Cosmos 1331 Rocket 4.0 16:05:10 10° NNW 16:10:19 65° ENE 16:15:25 10° SSE
Cosmos 1745 Rocket 4.0 16:04:01 10° N 16:10:22 82° E 16:16:36 10° S
STARLINK-1143 4.0 16:08:10 10° WSW 16:12:14 67° NW 16:16:19 10° NE
USA 81 4.0 16:07:23 10° N 16:12:41 77° E 16:17:56 10° S
Cosmos 332 Rocket 4.1 16:07:52 10° NNW 16:12:47 73° WSW 16:17:39 10° S
Cosmos 1544 Rocket 3.7 16:09:24 10° SSE 16:13:38 51° E 16:17:56 10° NNE
STARLINK-1110 4.0 16:09:40 10° NW 16:13:38 49° NNE 16:16:59 14° ESE
STARLINK-1124 4.0 16:10:26 10° NW 16:14:29 51° NNE 16:17:53 14° ESE
Cosmos 2369 Rocket 3.8 16:12:17 10° N 16:16:15 19° NE 16:19:36 12° E
USA 186 2.3 16:15:15 10° SE 16:18:30 42° ENE 16:21:44 10° N
Cosmos 1470 3.4 16:15:51 10° SSE 16:19:18 33° E 16:22:49 10° NNE
STARLINK-1241 4.2 16:16:53 10° WSW 16:20:52 57° NNW 16:24:52 10° NE
CZ-4 R/B 4.0 16:18:30 10° SSW 16:21:35 22° W 16:24:41 10° NW
Ariane Rocket 2.9 16:17:57 10° SSE 16:23:00 75° ENE 16:28:05 10° N
STARLINK-1122 3.8 16:19:03 10° NW 16:23:04 57° NNE 16:26:01 17° ESE
STARLINK-1239 4.3 16:21:44 10° WSW 16:25:41 53° NNW 16:29:40 10° NE
Meteor 1-22 Rocket 4.1 16:20:31 10° S 16:25:49 88° W 16:31:09 10° N
IRS-1A Rocket 4.3 16:20:46 10° SSE 16:26:22 76° ENE 16:32:08 10° NNW
SJ-11-01 4.3 16:22:07 10° SSE 16:26:49 88° WSW 16:31:34 10° NNW
STARLINK-1126 3.7 16:23:55 10° NW 16:27:57 62° NNE 16:30:43 19° ESE
ARGOS Delta rocket 4.0 16:23:43 10° SSE 16:28:46 85° ENE 16:34:08 10° N
SJ-6B 3.2 16:25:11 10° SE 16:29:03 46° ENE 16:33:00 10° N
STARLINK-1240 4.4 16:26:28 10° WSW 16:30:24 49° NNW 16:34:22 10° NE
Cosmos 1733 3.6 16:27:12 10° SSW 16:30:56 64° W 16:34:41 10° N
Cosmos 1110 Rocket 4.3 16:26:50 10° NNW 16:32:05 72° WSW 16:37:14 10° S
Cosmos 1758 3.6 16:28:32 10° SSE 16:32:25 44° E 16:36:20 10° NNE
STARLINK-1082 3.6 16:28:28 10° NW 16:32:32 66° NE 16:35:06 21° ESE
Cosmos 1726 4.1 16:34:06 13° ENE 16:34:06 13° ENE 16:35:07 10° NE
CZ-2C R/B 4.2 16:30:05 10° NNE 16:34:34 40° E 16:38:58 10° SSE
STARLINK-1100 3.6 16:33:16 10° NW 16:37:20 72° NE 16:39:43 24° ESE
Cosmos 1943 4.4 16:38:18 19° E 16:38:18 19° E 16:41:51 10° ENE
Cosmos 1943 Rocket 3.0 16:33:41 10° N 16:38:39 32° ENE 16:41:28 21° ESE
Aureole 2 Rocket 4.3 16:39:14 10° NNE 16:41:29 16° ENE 16:41:31 16° ENE
STARLINK-1083 3.5 16:37:59 10° NW 16:42:04 77° NE 16:44:16 26° ESE
Cosmos 2315 Rocket 4.0 16:35:51 10° S 16:42:07 75° E 16:48:28 10° N
USA 234 3.2 16:37:54 10° NE 16:44:26 73° SE 16:50:58 10° SW
STARLINK-1125 3.5 16:42:35 10° NW 16:46:42 84° NE 16:48:42 29° ESE
SL-14 R/B 3.4 16:43:34 10° N 16:47:38 77° W 16:51:38 10° S
Meteor 2-15 Rocket 4.4 16:42:50 10° S 16:48:47 60° E 16:54:44 10° NNE
STARLINK-1109 3.5 16:47:16 10° NW 16:51:22 90° NNE 16:53:12 32° SE
Resurs 1-3 4.0 16:50:46 28° ESE 16:52:35 42° ENE 16:56:44 10° N
H-2A R/B 2.3 16:47:25 10° S 16:52:44 72° WSW 16:57:57 10° NNW
Aureole 3 3.6 16:50:27 15° SSE 16:53:30 51° E 16:58:16 10° NNE
SL-16 R/B 2.5 16:49:18 10° SSW 16:54:55 69° WNW 17:00:35 10° NNE
STARLINK-1091 3.5 16:52:05 10° NW 16:56:10 83° SW 16:57:49 35° SE
DMSP B5D2-2 4.2 16:53:52 10° NNE 16:58:57 51° E 17:04:01 10° S
Meteor 2-15 4.4 16:53:43 10° S 16:59:47 90° WNW 17:05:52 10° N
SL-08 RB Rocket 3.6 16:56:17 16° SSE 16:59:52 84° ENE 17:04:27 10° N
TSX-5 4.0 16:55:19 10° NNW 17:00:31 74° ENE 17:02:16 35° SE
Cosmos 1626 2.9 16:57:21 10° NNW 17:00:58 51° W 17:04:33 10° S
STARLINK-1066 4.0 16:58:52 10° WNW 17:01:50 38° SW 17:02:39 31° S
Resurs 01 Rocket 2.2 17:01:21 34° E 17:02:10 37° ENE 17:06:15 10° N
STARLINK-1081 4.0 16:59:21 10° WNW 17:02:16 37° SW 17:03:02 31° S
STARLINK-1070 4.0 16:59:48 10° WNW 17:02:43 36° SW 17:03:28 31° S
STARLINK-1069 4.0 17:00:14 10° WNW 17:03:10 36° SW 17:03:56 31° S
STARLINK-1085 4.0 17:00:40 10° WNW 17:03:37 36° SW 17:04:22 31° S
STARLINK-1086 4.0 17:01:11 10° WNW 17:04:04 35° SW 17:04:46 31° SSW
STARLINK-1095 4.0 17:01:38 10° WNW 17:04:31 35° SW 17:05:12 31° SSW
STARLINK-1077 4.0 17:02:05 10° WNW 17:04:58 34° SW 17:05:38 30° SSW
STARLINK-1075 4.1 17:02:32 10° WNW 17:05:24 34° SW 17:06:04 30° SSW
STARLINK-1093 4.1 17:02:56 10° WNW 17:05:51 34° SW 17:06:32 30° SSW
STARLINK-1074 4.1 17:03:24 10° WNW 17:06:18 34° SW 17:06:58 30° SSW
STARLINK-1072 3.7 17:02:38 10° WNW 17:06:39 68° SW 17:07:51 42° SSE
STARLINK-1087 4.1 17:03:54 10° WNW 17:06:45 33° SW 17:07:21 30° SSW
STARLINK-1088 4.1 17:04:21 10° WNW 17:07:12 33° SW 17:07:48 30° SSW
STARLINK-1115 4.1 17:04:47 10° WNW 17:07:39 33° SW 17:08:16 30° SSW
Cosmos 1709 Rocket 4.3 17:01:41 10° NNW 17:07:49 66° W 17:13:51 10° S
STARLINK-1076 4.2 17:05:14 10° WNW 17:08:06 32° SW 17:08:42 30° SSW
STARLINK-1092 4.2 17:05:42 10° WNW 17:08:33 32° SW 17:09:08 29° SSW
STARLINK-1080 4.2 17:06:11 10° WNW 17:09:00 31° SW 17:09:32 29° SSW
STARLINK-1090 4.2 17:06:38 10° WNW 17:09:27 31° SW 17:09:58 29° SSW
Cosmos 1302 Rocket 4.2 17:04:14 10° NNW 17:09:30 72° WSW 17:13:23 18° S
STARLINK-1089 4.2 17:07:05 10° WNW 17:09:53 31° SW 17:10:23 29° SSW
STARLINK-1107 4.2 17:07:33 10° WNW 17:10:20 30° SW 17:10:50 29° SSW
STARLINK-1096 3.8 17:07:02 10° WNW 17:11:02 62° SW 17:12:04 44° SSE
STARLINK-1144 4.5 17:07:33 10° NW 17:11:27 38° NNE 17:12:20 33° ENE
Cosmos 1992 Rocket 4.3 17:06:29 10° N 17:11:31 46° ENE 17:12:47 39° ESE
Cosmos 1953 2.1 17:12:00 35° S 17:13:33 72° E 17:17:30 10° NNE
BREEZE M DEB (TANK) 4.0 17:02:08 10° SW 17:14:28 56° SSE 17:16:07 38° E
STARLINK-1079 3.9 17:12:00 10° WNW 17:15:58 56° SW 17:16:50 45° S
STARLINK-1103 4.3 17:12:30 10° NW 17:16:26 40° NNE 17:17:06 37° NE
Cosmos 1603 3.8 17:11:19 10° S 17:16:44 51° ESE 17:22:10 10° NE
Abrixas rocket 2.5 17:15:01 10° WSW 17:17:27 55° W 17:17:27 55° W
Meteor 1-16 Rocket 4.2 17:16:37 36° SE 17:18:20 51° E 17:23:35 10° NNE
SL-24 R/B 4.1 17:13:55 10° N 17:18:27 78° WNW 17:22:24 10° SSW
STARLINK-1116 4.0 17:16:29 10° WNW 17:20:24 51° SW 17:21:07 45° S
Cosmos 2251 Rocket 3.4 17:15:16 10° S 17:20:35 72° ESE 17:25:58 10° NNE
Cosmos 2074 Rocket 4.0 17:14:33 10° N 17:20:48 63° E 17:23:33 34° SSE
STARLINK-1101 4.2 17:17:28 10° NW 17:21:27 43° NNE 17:21:53 41° NE
STARLINK-1102 4.1 17:22:25 10° NW 17:26:26 46° NNE 17:26:40 45° NE
CZ-2C R/B 2.4 17:23:25 10° NNE 17:28:37 80° ESE 17:32:35 17° S
STARLINK-1094 4.3 17:25:47 10° WNW 17:29:37 43° SW 17:30:01 41° SSW
ISS -2.2 17:27:09 10° NW 17:29:43 29° N 17:29:43 29° N
Cosmos 2084 Rocket 3.6 17:25:49 10° NNW 17:30:16 61° NE 17:30:25 61° ENE
STARLINK-1111 4.1 17:27:24 10° NW 17:31:26 49° NNE 17:31:27 49° NNE
ARGOS 4.4 17:27:22 10° SSW 17:32:22 38° W 17:37:24 10° NNW
STARLINK-1117 4.4 17:30:36 10° WNW 17:34:23 39° SW 17:34:37 38° SW
STARLINK-1073 4.0 17:32:22 10° NW 17:36:14 52° NNE 17:36:14 52° NNE
Cosmos 1656 Rocket 4.4 17:33:58 10° N 17:39:11 36° ENE 17:39:16 36° ENE
Cosmos 292 Rocket 3.6 17:34:43 10° NNW 17:39:32 90° WSW 17:40:00 73° SSE
STARLINK-1121 4.1 17:37:19 10° NW 17:41:00 54° N 17:41:00 54° N
MOS 1 Rocket 3.8 17:39:55 10° N 17:45:09 71° WNW 17:50:26 11° SSW
STARLINK-1106 4.1 17:42:16 10° NW 17:45:46 54° N 17:45:46 54° N
STARLINK-1112 4.3 17:47:16 10° NW 17:50:35 52° NNW 17:50:35 52° NNW
STARLINK-1128 4.4 17:52:14 10° NW 17:55:22 48° NW 17:55:22 48° NW
Cosmos 2327 Rocket 4.4 17:52:32 10° N 17:58:51 86° E 17:59:56 64° SSE
Cosmos 2369 Rocket 2.1 17:55:14 10° NNW 18:00:56 77° WSW 18:01:25 71° SSW
NOSS 3-3 (A) 4.0 17:55:09 10° SW 18:00:57 76° NW 18:07:29 10° NNE
NOSS 3-3 (C) 4.0 17:55:15 10° SW 18:01:03 77° NW 18:07:35 10° NNE
Cosmos 1825 Rocket 4.1 17:56:55 10° NNW 18:00:44 58° NW 18:00:44 58° NW
Cosmos 2263 4.1 18:01:11 10° NNW 18:06:37 83° N 18:06:37 83° N
BREEZE-M DEB (TANK) 4.4 18:04:02 10° W 18:06:13 21° WNW 18:06:13 21° WNW
Cosmos 1726 4.0 18:08:31 30° NW 18:08:31 30° NW 18:11:14 10° N
Meteor 2-17 Rocket 4.3 18:03:15 10° N 18:09:25 88° E 18:09:42 83° SSE
Cosmos 1295 Rocket 4.4 18:05:19 10° N 18:11:23 73° ENE 18:11:23 73° ENE
Terra 3.8 18:15:00 19° NNE 18:15:00 19° NNE 18:16:45 10° N
Spot 2 Rocket 3.8 18:15:31 65° NW 18:15:31 65° NW 18:19:56 10° NNW
SPOT 1/Viking Rocket 4.2 18:20:13 49° N 18:20:13 49° N 18:24:02 10° N
Cosmos 1943 3.5 18:19:43 42° SW 18:21:31 62° WNW 18:27:10 10° NNE
Cosmos 1943 Rocket 3.2 18:17:20 10° NW 18:22:24 37° WSW 18:23:02 36° WSW
ATLAS 2AS CENTAUR R/B 3.0 18:19:21 10° NNW 18:26:50 56° NE 18:26:55 56° NE
USA 234 4.3 18:21:09 10° NE 18:27:11 41° NNW 18:33:12 10° W
Cosmos 2154 Rocket 4.4 18:27:24 10° NNW 18:33:39 59° W 18:34:10 57° WSW
Resurs 01 Rocket 3.8 18:38:54 20° W 18:38:54 20° W 18:42:03 10° NW
COSMOS 2455 4.4 19:28:56 10° NNW 19:32:01 32° NNW 19:32:01 32° NNW
ATLAS 2AS CENTAUR R/B 4.5 20:10:59 10° NW 20:14:22 24° WNW 20:14:22 24° WNW
CZ-4C R/B 4.2 20:49:00 10° NNW 20:53:34 34° N 20:53:34 34° N
SL-16 R/B 4.1 22:07:39 30° NNE 22:07:39 30° NNE 22:11:00 10° N
Cosmos 2360 Rocket 4.3 22:29:38 10° N 22:31:55 22° N 22:31:55 22° N
USA 267 3.8 22:52:52 10° NE 22:57:37 52° ENE 22:57:37 52° ENE
SJ 16-02 3.9 23:16:33 19° ENE 23:16:33 19° ENE 23:18:08 10° NE
H-2A R/B 4.5 23:25:14 19° NNE 23:25:14 19° NNE 23:26:40 10° N
COSMOS 2428 4.3 23:20:36 10° N 23:25:41 32° NE 23:30:43 10° ESE
ARIANE 5 R/B 3.6 23:26:59 10° NNE 23:30:51 42° ENE 23:30:51 42° ENE
USA 234 3.7 23:26:36 10° ESE 23:32:57 56° NNE 23:39:20 10° NW
Cosmos 1464 Rocket 4.4 23:28:54 10° N 23:33:42 57° N 23:33:42 57° N
CZ-2D R/B 3.7 23:30:09 10° N 23:32:53 27° NNW 23:32:53 27° NNW
Resurs 1-4 Rocket 3.8 23:31:43 10° N 23:34:05 24° NNW 23:34:05 24° NNW
Cosmos 2219 Rocket 3.3 23:33:28 10° NNW 23:38:46 41° ENE 23:44:01 10° SE
ADEOS II 2.9 23:35:45 10° NNE 23:39:24 46° NNE 23:39:24 46° NNE
Meteor 1-11 Rocket 4.1 23:37:40 10° N 23:43:29 66° ENE 23:43:29 66° ENE
SL-16 R/B 4.4 23:52:44 17° NW 23:52:44 17° NW 23:54:19 10° NW
